When you browse on this site, cookies collect data to enhance your experience and personalize the content and advertising you see.
Visit our Privacy Policy to learn more. By continuing to use the site, you agree to this use of cookies and data.
  • In Denmark
  • List of Countries
  • For 7 days
  • Water Temperature
  • Weather Map
  • Weather Widgets
  • user-avatar
    Login

    Hourly Weather Armawir

    Today, 16 November, Saturday

    Time Temperature Precipitation Wind Pressure Humidity
    00:00 +7°C° 0 mm 1 mps 691 mmHg 42%
    01:00 +7°C° 0 mm 1 mps 691 mmHg 47%
    02:00 +6°C° 0 mm 1 mps 691 mmHg 52%
    03:00 +6°C° 0 mm 1 mps 691 mmHg 57%
    04:00 +5°C° 0 mm 1 mps 691 mmHg 59%
    05:00 +5°C° 0 mm 1 mps 691 mmHg 61%
    06:00 +4°C° 0 mm 1 mps 691 mmHg 63%
    07:00 +6°C° 0 mm 1 mps 692 mmHg 57%
    08:00 +7°C° 0 mm 1 mps 692 mmHg 51%
    09:00 +9°C° 0 mm 1 mps 693 mmHg 45%
    10:00 +10°C° 0 mm 1 mps 693 mmHg 43%
    11:00 +11°C° 0 mm 1 mps 692 mmHg 40%
    12:00 +12°C° 0 mm 1 mps 692 mmHg 38%
    13:00 +12°C° 0 mm 1 mps 692 mmHg 37%
    14:00 +12°C° 0 mm 1 mps 692 mmHg 36%
    15:00 +13°C° 0 mm 1 mps 692 mmHg 35%
    16:00 +11°C° 0 mm 1 mps 693 mmHg 40%
    17:00 +10°C° 0 mm 1 mps 693 mmHg 45%
    18:00 +8°C° 0 mm 1 mps 693 mmHg 51%
    19:00 +8°C° 0 mm 1 mps 693 mmHg 53%
    20:00 +7°C° 0 mm 1 mps 694 mmHg 54%
    21:00 +5°C° 0 mm 2 mps 694 mmHg 56%
    22:00 +6°C° 0 mm 1 mps 694 mmHg 58%
    23:00 +5°C° 0 mm 1 mps 694 mmHg 60%

    Tomorrow, 17 November, Sunday

    Time Temperature Precipitation Wind Pressure Humidity
    00:00 +5°C° 0 mm 1 mps 694 mmHg 61%
    01:00 +4°C° 0 mm 1 mps 694 mmHg 63%
    02:00 +4°C° 0 mm 1 mps 694 mmHg 64%
    03:00 +3°C° 0 mm 1 mps 694 mmHg 66%
    04:00 +3°C° 0 mm 1 mps 694 mmHg 67%
    05:00 +2°C° 0 mm 1 mps 694 mmHg 69%
    06:00 +2°C° 0 mm 1 mps 694 mmHg 70%
    07:00 +3°C° 0 mm 1 mps 694 mmHg 64%
    08:00 +5°C° 0 mm 1 mps 694 mmHg 57%
    09:00 +6°C° 0 mm 1 mps 695 mmHg 51%
    10:00 +7°C° 0 mm 1 mps 694 mmHg 48%
    11:00 +8°C° 0 mm 1 mps 693 mmHg 44%
    12:00 +9°C° 0 mm 1 mps 693 mmHg 41%
    13:00 +9°C° 0 mm 1 mps 693 mmHg 39%
    14:00 +10°C° 0 mm 1 mps 692 mmHg 38%
    15:00 +10°C° 0 mm 1 mps 692 mmHg 36%
    16:00 +9°C° 0 mm 1 mps 692 mmHg 41%
    17:00 +6°C° 0 mm 0 mps 692 mmHg 45%
    18:00 +5°C° 0 mm 0 mps 692 mmHg 49%
    19:00 +4°C° 0 mm 0 mps 693 mmHg 50%
    20:00 +4°C° 0 mm 0 mps 693 mmHg 51%
    21:00 +3°C° 0 mm 0 mps 693 mmHg 52%
    22:00 +3°C° 0 mm 0 mps 693 mmHg 54%
    23:00 +3°C° 0 mm 0 mps 693 mmHg 55%

    Day after tomorrow, 18 November, Monday

    Time Temperature Precipitation Wind Pressure Humidity
    00:00 +2°C° 0 mm 0 mps 693 mmHg 57%
    01:00 +2°C° 0 mm 0 mps 693 mmHg 58%
    02:00 +2°C° 0 mm 0 mps 693 mmHg 60%
    03:00 +1°C° 0 mm 0 mps 692 mmHg 61%
    04:00 +1°C° 0 mm 0 mps 692 mmHg 61%
    05:00 +1°C° 0 mm 0 mps 692 mmHg 62%
    06:00 +1°C° 0 mm 0 mps 692 mmHg 62%
    07:00 +3°C° 0 mm 0 mps 692 mmHg 55%
    08:00 +4°C° 0 mm 0 mps 693 mmHg 47%
    09:00 +6°C° 0 mm 0 mps 693 mmHg 40%
    10:00 +7°C° 0 mm 0 mps 692 mmHg 37%
    11:00 +8°C° 0 mm 0 mps 692 mmHg 34%
    12:00 +11°C° 0 mm 1 mps 691 mmHg 31%
    13:00 +11°C° 0 mm 1 mps 691 mmHg 30%
    14:00 +11°C° 0 mm 1 mps 690 mmHg 28%
    15:00 +12°C° 0 mm 1 mps 690 mmHg 27%
    16:00 +10°C° 0 mm 1 mps 690 mmHg 31%
    17:00 +8°C° 0 mm 1 mps 690 mmHg 35%
    18:00 +7°C° 0 mm 1 mps 690 mmHg 39%
    19:00 +6°C° 0 mm 1 mps 690 mmHg 40%
    20:00 +6°C° 0 mm 1 mps 691 mmHg 42%
    21:00 +5°C° 0 mm 1 mps 691 mmHg 43%
    22:00 +5°C° 0 mm 1 mps 691 mmHg 45%
    23:00 +4°C° 0 mm 1 mps 691 mmHg 47%

    19 November, Tuesday

    Time Temperature Precipitation Wind Pressure Humidity
    00:00 +4°C° 0 mm 1 mps 691 mmHg 49%
    01:00 +3°C° 0 mm 1 mps 691 mmHg 51%
    02:00 +2°C° 0 mm 0 mps 691 mmHg 53%
    03:00 +2°C° 0 mm 0 mps 690 mmHg 55%
    04:00 +1°C° 0 mm 0 mps 690 mmHg 55%
    05:00 +1°C° 0 mm 0 mps 690 mmHg 56%
    06:00 +1°C° 0 mm 0 mps 690 mmHg 56%
    07:00 +3°C° 0 mm 0 mps 690 mmHg 49%
    08:00 +5°C° 0 mm 0 mps 690 mmHg 41%
    09:00 +7°C° 0 mm 0 mps 691 mmHg 34%
    10:00 +8°C° 0 mm 0 mps 690 mmHg 31%
    11:00 +9°C° 0 mm 0 mps 690 mmHg 28%
    12:00 +10°C° 0 mm 0 mps 689 mmHg 25%
    13:00 +12°C° 0 mm 1 mps 689 mmHg 24%
    14:00 +12°C° 0 mm 1 mps 689 mmHg 22%
    15:00 +13°C° 0 mm 1 mps 688 mmHg 21%
    16:00 +11°C° 0 mm 1 mps 688 mmHg 25%
    17:00 +9°C° 0 mm 1 mps 688 mmHg 29%
    18:00 +6°C° 0 mm 0 mps 688 mmHg 33%
    19:00 +5°C° 0 mm 0 mps 688 mmHg 34%
    20:00 +5°C° 0 mm 0 mps 688 mmHg 34%
    21:00 +5°C° 0 mm 0 mps 688 mmHg 35%
    22:00 +4°C° 0 mm 0 mps 688 mmHg 36%
    23:00 +4°C° 0 mm 0 mps 688 mmHg 37%

    20 November, Wednesday

    Time Temperature Precipitation Wind Pressure Humidity
    00:00 +3°C° 0 mm 0 mps 688 mmHg 39%
    01:00 +3°C° 0 mm 0 mps 687 mmHg 40%
    02:00 +3°C° 0 mm 0 mps 687 mmHg 42%
    03:00 +2°C° 0 mm 0 mps 687 mmHg 43%
    04:00 +2°C° 0 mm 0 mps 687 mmHg 45%
    05:00 +2°C° 0 mm 0 mps 687 mmHg 46%
    06:00 +1°C° 0 mm 0 mps 686 mmHg 48%
    07:00 +3°C° 0 mm 0 mps 687 mmHg 41%
    08:00 +5°C° 0 mm 0 mps 687 mmHg 35%
    09:00 +7°C° 0 mm 0 mps 687 mmHg 28%
    10:00 +8°C° 0 mm 0 mps 687 mmHg 27%
    11:00 +11°C° 0 mm 1 mps 686 mmHg 25%
    12:00 +12°C° 0 mm 1 mps 686 mmHg 24%
    13:00 +12°C° 0 mm 1 mps 686 mmHg 23%
    14:00 +13°C° 0 mm 1 mps 685 mmHg 22%
    15:00 +13°C° 0 mm 1 mps 685 mmHg 22%
    16:00 +11°C° 0 mm 1 mps 685 mmHg 26%
    17:00 +9°C° 0 mm 1 mps 685 mmHg 30%
    18:00 +6°C° 0 mm 0 mps 685 mmHg 34%
    19:00 +6°C° 0 mm 0 mps 685 mmHg 35%
    20:00 +5°C° 0 mm 0 mps 685 mmHg 36%
    21:00 +5°C° 0 mm 0 mps 685 mmHg 37%
    22:00 +4°C° 0 mm 0 mps 685 mmHg 38%
    23:00 +4°C° 0 mm 0 mps 685 mmHg 39%

    21 November, Thursday

    Time Temperature Precipitation Wind Pressure Humidity
    00:00 +5°C° 0 mm 1 mps 685 mmHg 40%
    01:00 +4°C° 0 mm 1 mps 685 mmHg 42%
    02:00 +4°C° 0 mm 1 mps 685 mmHg 43%
    03:00 +4°C° 0 mm 1 mps 684 mmHg 45%
    04:00 +3°C° 0 mm 1 mps 685 mmHg 46%
    05:00 +3°C° 0 mm 1 mps 685 mmHg 48%
    06:00 +3°C° 0 mm 1 mps 685 mmHg 49%
    07:00 +5°C° 0 mm 1 mps 686 mmHg 43%
    08:00 +6°C° 0 mm 1 mps 686 mmHg 37%
    09:00 +8°C° 0 mm 1 mps 687 mmHg 31%
    10:00 +9°C° 0 mm 1 mps 687 mmHg 28%
    11:00 +11°C° 0 mm 1 mps 687 mmHg 26%
    12:00 +12°C° 0 mm 1 mps 688 mmHg 24%
    13:00 +12°C° 0 mm 1 mps 688 mmHg 24%
    14:00 +12°C° 0 mm 1 mps 688 mmHg 23%
    15:00 +13°C° 0 mm 2 mps 688 mmHg 23%
    16:00 +10°C° 0 mm 2 mps 689 mmHg 29%
    17:00 +8°C° 0 mm 2 mps 689 mmHg 35%
    18:00 +6°C° 0 mm 2 mps 690 mmHg 40%
    19:00 +5°C° 0 mm 2 mps 690 mmHg 45%
    20:00 +5°C° 0 mm 2 mps 691 mmHg 49%
    21:00 +4°C° 0 mm 2 mps 691 mmHg 53%
    22:00 +4°C° 0 mm 2 mps 692 mmHg 55%
    23:00 +4°C° 0 mm 1 mps 692 mmHg 57%
    Show more